This demonstration page uses our WeatherBlox Daily Observations layout. Learn more.

Left ArrowRight Arrow

39.95238, -75.16362

Hourly Observations for May 14, 2016

Temp ( °F °C ) Dew Point ( °F °C ) Humidity (%) Winds ( mph kmh ) Pressure ( in mb ) Visibility ( mi km ) Precip ( " mm )
12:31 am 00:31 Clear with Mist and Fog 61 16.1 59 15 93 93 WSW 6 9 29.83 1010 6 10 0.00 0.00
12:54 am 00:54 Clear with Mist and Fog 62 16.7 58 14.4 86 86 WSW 8 13 29.83 1010 6 10 0.00 0.00
1:06 am 01:06 Clear 61 16 57 14 88 88 WSW 7 11 29.83 1010 8 13 0.00 0.00
1:33 am 01:33 Clear 59 15 55 12.8 87 87 W 6 9 29.83 1010 10 16 0.00 0.00
1:54 am 01:54 Clear 59 15 55 12.8 87 87 WSW 6 9 29.83 1010 10 16 0.00 0.00
2:54 am 02:54 Clear 56 13.3 53 11.7 90 90 Calm 29.82 1010 10 16 0.00 0.00
3:54 am 03:54 Clear 56 13.3 51 10.6 84 84 WSW 6 9 29.83 1010 10 16 0.00 0.00
4:54 am 04:54 Clear 55 12.8 50 10 83 83 Calm 29.82 1010 10 16 0.00 0.00
5:54 am 05:54 Sunny 56 13.3 51 10.6 84 84 SW 3 6 29.82 1010 10 16 0.00 0.00
6:54 am 06:54 Mostly Sunny 57 13.9 51 10.6 81 81 WSW 3 6 29.82 1010 10 16 0.00 0.00
7:54 am 07:54 Partly Cloudy 61 16.1 50 10 67 67 Calm 29.81 1010 10 16 0.00 0.00
8:54 am 08:54 Partly Cloudy 64 17.8 50 10 60 60 Calm 29.80 1009 10 16 0.00 0.00
9:54 am 09:54 Partly Cloudy 67 19.4 51 10.6 57 57 S 5 7 29.78 1009 10 16 0.00 0.00
10:54 am 10:54 Mostly Cloudy 71 21.7 51 10.6 49 49 S 10 17 29.77 1008 10 16 0.00 0.00
11:54 am 11:54 Mostly Cloudy 72 22.2 50 10 46 46 SSW 13 20 29.75 1007 10 16 0.00 0.00
12:54 pm 12:54 Mostly Cloudy 73 22.8 46 7.8 38 38 SSW 18 30 29.72 1007 10 16 0.00 0.00
1:54 pm 13:54 Cloudy 74 23.3 47 8.3 38 38 SW 15 24 29.70 1006 10 16 0.00 0.00
2:54 pm 14:54 Cloudy 74 23.3 46 7.8 37 37 SW 20 31 29.68 1005 10 16 0.00 0.00
3:54 pm 15:54 Mostly Cloudy 76 24.4 45 7.2 33 33 SW 22 35 29.65 1004 10 16 0.00 0.00
4:35 pm 16:35 Mostly Cloudy 67 19.4 46 7.8 47 47 WNW 29 46 29.68 1005 10 16 0.00 0.00
4:37 pm 16:37 Mostly Cloudy 67 19.4 46 7.8 47 47 WNW 29 46 29.68 1005 10 16 0.00 0.00
4:54 pm 16:54 Mostly Cloudy with Light Rain 66 18.9 47 8.3 50 50 WNW 21 33 29.68 1005 10 16 0.00 0.03
5:14 pm 17:14 Mostly Cloudy with Light Rain 65 18.3 47 8.3 52 52 WNW 20 31 29.71 1006 8 13 0.00 0.03
5:42 pm 17:42 Mostly Cloudy with Light Rain 60 15.6 53 11.7 78 78 SW 13 20 29.71 1006 10 16 0.05 1.27
5:54 pm 17:54 Mostly Cloudy with Light Rain 60 15.6 53 11.7 78 78 SW 10 17 29.69 1005 10 16 0.07 1.78
6:54 pm 18:54 Mostly Cloudy with Light Rain 59 15 53 11.7 81 81 S 7 11 29.66 1004 10 16 0.03 0.76
7:54 pm 19:54 Mostly Cloudy 59 15 53 11.7 81 81 SW 10 17 29.67 1005 10 16 0.00 0.03
8:54 pm 20:54 Mostly Cloudy 59 15 54 12.2 83 83 W 12 19 29.70 1006 10 16 0.00 0.00
9:54 pm 21:54 Mostly Cloudy 59 15 46 7.8 62 62 WNW 10 17 29.72 1006 10 16 0.00 0.00
10:54 pm 22:54 Mostly Cloudy 57 13.9 46 7.8 67 67 W 12 19 29.73 1007 10 16 0.00 0.00
11:54 pm 23:54 Partly Cloudy 56 13.3 45 7.2 67 67 WNW 13 20 29.74 1007 10 16 0.00 0.00

Powered by AerisWeather